Monroe, WI

6:36 PM CST on November 23, 2017 (GMT -0600)
Monroe Municipal

Weather History for KEFT - November, 2013

Change the Weather History Date:

Sunday, November 24, 2013

  Actual Average Record
Temperature  
Mean Temperature 16 °F -  
Max Temperature 26 °F 0 °F 62 °F (2001)
Min Temperature 7 °F - 7 °F (2013)
Degree Days  
Heating Degree Days 48    
Moisture  
Dew Point 5 °F    
Average Humidity 61    
Maximum Humidity 94    
Minimum Humidity 33    
Precipitation  
Precipitation 0.00 in - - ()
Sea Level Pressure  
Sea Level Pressure 30.51 in    
Wind  
Wind Speed 10 mph (SW)    
Max Wind Speed 26 mph    
Max Gust Speed 32 mph    
Visibility 10 miles    
Events      
Averages and records for this station are not official NWS values.
T = Trace of Precipitation, MM = Missing Value Source: NWS Daily Summary

Daily Weather History Graph

Daily Weather History Graph

Search for Another Location

Airport or City:

Trip Planner

Search our weather history database for the weather conditions in past years. The results will help you decide how hot, cold, wet, or windy it might be!

Date:

Astronomy

Nov. 24, 2013 Rise Set
Actual Time 7:01 AM CST 4:28 PM CST
Civil Twilight 6:30 AM CST 4:59 PM CST
Nautical Twilight 5:55 AM CST 5:34 PM CST
Astronomical Twilight 5:21 AM CST 6:08 PM CST
Moon 10:59 PM CST 11:45 AM CST
Length of Visible Light 10h 29m
Length of Day
9h 27m
Waning Gibbous, 60% of the Moon is Illuminated
Nov 24
Waning Gibbous
Nov 25
Last Quarter
Dec 2
New
Dec 9
First Quarter
Dec 17
Full

Hourly Weather History & Observations

Time (CST) Temp. Windchill Dew Point Humidity Pressure Visibility Wind Dir Wind Speed Gust Speed Precip Events Conditions
12:15 AM 10.2 °F 0.6 °F 2.1 °F 70% 30.65 in 10.0 mi NW 5.8 mph - N/A   Clear
12:35 AM 10.2 °F -0.6 °F 2.1 °F 70% 30.65 in 10.0 mi WNW 6.9 mph - N/A   Clear
12:55 AM 9.9 °F 0.2 °F 2.3 °F 71% 30.64 in 10.0 mi NW 5.8 mph - N/A   Clear
1:15 AM 9.5 °F -0.3 °F 2.3 °F 73% 30.65 in 10.0 mi West 5.8 mph - N/A   Clear
1:35 AM 9.3 °F -2.8 °F 2.8 °F 75% 30.65 in 10.0 mi West 8.1 mph - N/A   Clear
1:55 AM 8.6 °F -5.5 °F 3.0 °F 78% 30.65 in 10.0 mi West 10.4 mph - N/A   Clear
2:15 AM 9.0 °F -2.2 °F 3.2 °F 77% 30.65 in 10.0 mi West 6.9 mph - N/A   Clear
2:35 AM 9.3 °F -2.8 °F 3.6 °F 77% 30.66 in 10.0 mi West 8.1 mph - N/A   Clear
2:55 AM 9.1 °F -3.0 °F 3.2 °F 77% 30.64 in 10.0 mi WNW 8.1 mph - N/A   Clear
3:35 AM 9.3 °F -3.8 °F 3.4 °F 77% 30.64 in 10.0 mi West 9.2 mph - N/A   Clear
3:55 AM 8.6 °F -3.7 °F 3.2 °F 79% 30.62 in 10.0 mi WNW 8.1 mph - N/A   Clear
4:15 AM 8.6 °F -4.7 °F 3.6 °F 80% 30.63 in 10.0 mi West 9.2 mph - N/A   Clear
4:35 AM 8.6 °F -3.7 °F 3.6 °F 80% 30.63 in 10.0 mi West 8.1 mph - N/A   Clear
4:55 AM 8.6 °F -3.7 °F 3.2 °F 79% 30.62 in 10.0 mi West 8.1 mph - N/A   Clear
5:15 AM 7.9 °F -4.6 °F 5.5 °F 90% 30.62 in 10.0 mi West 8.1 mph - N/A   Clear
5:35 AM 8.4 °F -4.9 °F 3.9 °F 82% 30.63 in 10.0 mi West 9.2 mph - N/A   Clear
5:55 AM 7.9 °F -3.5 °F 3.0 °F 81% 30.63 in 10.0 mi West 6.9 mph - N/A   Clear
6:15 AM 7.5 °F -6.0 °F 4.6 °F 88% 30.64 in 10.0 mi West 9.2 mph - N/A   Clear
6:35 AM 8.1 °F -6.2 °F 6.6 °F 94% 30.64 in 10.0 mi West 10.4 mph - N/A   Clear
6:55 AM 8.2 °F -5.1 °F 5.5 °F 89% 30.64 in 10.0 mi West 9.2 mph - N/A   Clear
7:15 AM 8.2 °F -5.1 °F 6.6 °F 93% 30.65 in 10.0 mi WSW 9.2 mph - N/A   Clear
7:55 AM 10.4 °F -0.4 °F 5.0 °F 79% 30.64 in 10.0 mi West 6.9 mph - N/A   Clear
8:15 AM 11.3 °F 0.7 °F 5.0 °F 76% 30.64 in 10.0 mi West 6.9 mph - N/A   Clear
8:35 AM 12.7 °F 3.6 °F 5.0 °F 71% 30.64 in 10.0 mi WSW 5.8 mph - N/A   Clear
8:55 AM 14.4 °F 5.5 °F 4.6 °F 65% 30.64 in 10.0 mi WSW 5.8 mph - N/A   Clear
9:15 AM 15.6 °F 4.9 °F 5.0 °F 63% 30.64 in 10.0 mi SW 8.1 mph - N/A   Clear
9:55 AM 18.0 °F 5.4 °F 6.4 °F 61% 30.64 in 10.0 mi SW 11.5 mph - N/A   Clear
10:15 AM 18.9 °F 7.2 °F 5.9 °F 57% 30.63 in 10.0 mi SW 10.4 mph - N/A   Clear
10:35 AM 19.9 °F 8.6 °F 5.5 °F 54% 30.62 in 10.0 mi SW 10.4 mph - N/A   Clear
10:55 AM 20.7 °F 9.5 °F 3.9 °F 48% 30.60 in 10.0 mi SW 10.4 mph - N/A   Clear
11:15 AM 21.2 °F 8.3 °F 4.5 °F 49% 30.58 in 10.0 mi SW 13.8 mph 18.4 mph N/A   Clear
11:35 AM 21.9 °F 9.2 °F 4.3 °F 47% 30.57 in 10.0 mi SSW 13.8 mph - N/A   Clear
11:55 AM 23.4 °F 11.6 °F 4.8 °F 45% 30.54 in 10.0 mi SSW 12.7 mph - N/A   Clear
12:15 PM 23.9 °F 12.9 °F 4.1 °F 43% 30.53 in 10.0 mi SW 11.5 mph 18.4 mph N/A   Clear
12:35 PM 24.6 °F 12.2 °F 2.5 °F 39% 30.52 in 10.0 mi SW 15.0 mph 19.6 mph N/A   Clear
12:55 PM 25.5 °F 12.4 °F 2.5 °F 37% 30.51 in 10.0 mi SW 17.3 mph - N/A   Clear
1:15 PM 25.7 °F 13.5 °F 1.8 °F 36% 30.50 in 10.0 mi SW 15.0 mph - N/A   Clear
1:35 PM 25.9 °F 11.7 °F 1.2 °F 35% 30.48 in 10.0 mi SW 20.7 mph 24.2 mph N/A   Clear
1:55 PM 26.2 °F 13.0 °F 1.0 °F 34% 30.47 in 10.0 mi SW 18.4 mph 23.0 mph N/A   Clear
2:15 PM 26.1 °F 15.0 °F 0.3 °F 33% 30.47 in 10.0 mi SW 12.7 mph - N/A   Clear
2:55 PM 26.4 °F 14.0 °F 2.1 °F 35% 30.45 in 10.0 mi SW 16.1 mph 21.9 mph N/A   Clear
3:15 PM 26.2 °F 14.2 °F 2.3 °F 36% 30.44 in 10.0 mi SSW 15.0 mph 20.7 mph N/A   Clear
3:35 PM 25.7 °F 13.5 °F 2.7 °F 37% 30.44 in 10.0 mi SSW 15.0 mph 21.9 mph N/A   Clear
3:55 PM 25.5 °F 13.3 °F 2.7 °F 37% 30.43 in 10.0 mi SSW 15.0 mph - N/A   Clear
4:15 PM 24.8 °F 12.4 °F 3.2 °F 40% 30.42 in 10.0 mi SSW 15.0 mph - N/A   Clear
4:35 PM 23.7 °F 12.1 °F 3.7 °F 42% 30.42 in 10.0 mi SSW 12.7 mph - N/A   Clear
4:55 PM 23.0 °F 11.7 °F 4.8 °F 46% 30.41 in 10.0 mi SSW 11.5 mph - N/A   Clear
5:15 PM 22.1 °F 11.3 °F 5.9 °F 50% 30.41 in 10.0 mi SSW 10.4 mph - N/A   Clear
5:35 PM 22.1 °F 10.0 °F 6.3 °F 51% 30.40 in 10.0 mi SSW 12.7 mph - N/A   Clear
5:55 PM 22.1 °F 10.0 °F 5.9 °F 50% 30.39 in 10.0 mi SSW 12.7 mph - N/A   Clear
6:15 PM 21.9 °F 8.7 °F 5.9 °F 50% 30.38 in 10.0 mi SSW 15.0 mph - N/A   Clear
6:35 PM 21.7 °F 8.0 °F 6.1 °F 51% 30.37 in 10.0 mi SSW 16.1 mph 20.7 mph N/A   Clear
6:55 PM 21.2 °F 8.3 °F 6.4 °F 53% 30.36 in 10.0 mi South 13.8 mph - N/A   Clear
7:15 PM 21.2 °F 7.8 °F 7.5 °F 56% 30.35 in 10.0 mi SSW 15.0 mph - N/A   Clear
7:55 PM 21.2 °F 7.8 °F 8.4 °F 58% 30.33 in 10.0 mi SSW 15.0 mph 20.7 mph N/A   Clear
8:15 PM 21.2 °F 6.4 °F 9.0 °F 59% 30.32 in 10.0 mi SSW 18.4 mph 21.9 mph N/A   Clear
8:35 PM 21.2 °F 6.8 °F 9.1 °F 60% 30.31 in 10.0 mi SSW 17.3 mph - N/A   Clear
8:55 PM 21.6 °F 6.1 °F 8.6 °F 57% 30.31 in 10.0 mi SSW 20.7 mph 26.5 mph N/A   Clear
9:15 PM 21.7 °F 5.6 °F 8.8 °F 57% 30.31 in 10.0 mi SSW 23.0 mph 29.9 mph N/A   Clear
9:35 PM 21.2 °F 5.6 °F 9.0 °F 59% 30.30 in 10.0 mi SSW 20.7 mph 26.5 mph N/A   Clear
9:55 PM 21.0 °F 6.2 °F 8.6 °F 59% 30.30 in 10.0 mi SSW 18.4 mph 25.3 mph N/A   Clear
10:15 PM 20.8 °F 6.8 °F 9.1 °F 61% 30.30 in 10.0 mi SSW 16.1 mph 25.3 mph N/A   Clear
10:55 PM 20.3 °F 5.2 °F 9.3 °F 63% 30.27 in 10.0 mi SSW 18.4 mph 25.3 mph N/A   Clear
11:15 PM 20.3 °F 4.4 °F 9.5 °F 63% 30.27 in 10.0 mi SSW 20.7 mph 27.6 mph N/A   Clear
11:35 PM 20.1 °F 2.4 °F 9.5 °F 63% 30.25 in 10.0 mi SSW 26.5 mph 32.2 mph N/A   Clear
11:55 PM 20.1 °F 3.4 °F 9.5 °F 63% 30.24 in 10.0 mi SSW 23.0 mph 29.9 mph N/A   Clear